Year,Month,Day,Hour,Minute,Value (Times are PST for temperature in C)
2017,03,12,00,00,8.30
2017,03,12,00,01,8.30
2017,03,12,00,02,8.30
2017,03,12,00,03,8.30
2017,03,12,00,04,8.30
2017,03,12,00,05,8.40
2017,03,12,00,06,8.40
2017,03,12,00,07,8.50
2017,03,12,00,08,8.60
2017,03,12,00,09,8.60
2017,03,12,00,10,8.70
2017,03,12,00,11,8.80
2017,03,12,00,12,8.90
2017,03,12,00,13,9.00
2017,03,12,00,14,9.10
2017,03,12,00,15,9.10
2017,03,12,00,16,9.10
2017,03,12,00,17,9.20
2017,03,12,00,18,9.10
2017,03,12,00,19,9.00
2017,03,12,00,20,8.90
2017,03,12,00,21,8.80
2017,03,12,00,22,8.70
2017,03,12,00,23,8.70
2017,03,12,00,24,8.70
2017,03,12,00,25,8.70
2017,03,12,00,26,8.70
2017,03,12,00,27,8.70
2017,03,12,00,28,8.80
2017,03,12,00,29,8.80
2017,03,12,00,30,8.90
2017,03,12,00,31,9.10
2017,03,12,00,32,9.30
2017,03,12,00,33,9.50
2017,03,12,00,34,9.70
2017,03,12,00,35,9.80
2017,03,12,00,36,9.80
2017,03,12,00,37,9.80
2017,03,12,00,38,9.70
2017,03,12,00,39,9.60
2017,03,12,00,40,9.60
2017,03,12,00,41,9.50
2017,03,12,00,42,9.50
2017,03,12,00,43,9.60
2017,03,12,00,44,9.60
2017,03,12,00,45,9.60
2017,03,12,00,46,9.70
2017,03,12,00,47,9.70
2017,03,12,00,48,9.80
2017,03,12,00,49,9.80
2017,03,12,00,50,9.80
2017,03,12,00,51,9.80
2017,03,12,00,52,9.80
2017,03,12,00,53,9.80
2017,03,12,00,54,9.80
2017,03,12,00,55,9.80
2017,03,12,00,56,9.80
2017,03,12,00,57,9.80
2017,03,12,00,58,9.80
2017,03,12,00,59,9.70
2017,03,12,01,00,9.70
2017,03,12,01,01,9.70
2017,03,12,01,02,9.70
2017,03,12,01,03,9.70
2017,03,12,01,04,9.70
2017,03,12,01,05,9.70
2017,03,12,01,06,9.70
2017,03,12,01,07,9.60
2017,03,12,01,08,9.60
2017,03,12,01,09,9.60
2017,03,12,01,10,9.60
2017,03,12,01,11,9.60
2017,03,12,01,12,9.60
2017,03,12,01,13,9.60
2017,03,12,01,14,9.60
2017,03,12,01,15,9.60
2017,03,12,01,16,9.60
2017,03,12,01,17,9.60
2017,03,12,01,18,9.60
2017,03,12,01,19,9.60
2017,03,12,01,20,9.60
2017,03,12,01,21,9.60
2017,03,12,01,22,9.60
2017,03,12,01,23,9.50
2017,03,12,01,24,9.50
2017,03,12,01,25,9.40
2017,03,12,01,26,9.40
2017,03,12,01,27,9.30
2017,03,12,01,28,9.30
2017,03,12,01,29,9.20
2017,03,12,01,30,9.20
2017,03,12,01,31,9.20
2017,03,12,01,32,9.20
2017,03,12,01,33,9.20
2017,03,12,01,34,9.20
2017,03,12,01,35,9.20
2017,03,12,01,36,9.20
2017,03,12,01,37,9.20
2017,03,12,01,38,9.20
2017,03,12,01,39,9.10
2017,03,12,01,40,9.10
2017,03,12,01,41,9.10
2017,03,12,01,42,9.10
2017,03,12,01,43,9.00
2017,03,12,01,44,9.00
2017,03,12,01,45,8.90
2017,03,12,01,46,8.90
2017,03,12,01,47,8.80
2017,03,12,01,48,8.80
2017,03,12,01,49,8.90
2017,03,12,01,50,8.90
2017,03,12,01,51,8.90
2017,03,12,01,52,8.90
2017,03,12,01,53,8.90
2017,03,12,01,54,8.90
2017,03,12,01,55,8.90
2017,03,12,01,56,8.90
2017,03,12,01,57,8.90
2017,03,12,01,58,8.80
2017,03,12,01,59,8.80
2017,03,12,03,00,8.70
2017,03,12,03,01,8.70
2017,03,12,03,02,8.70
2017,03,12,03,03,8.70
2017,03,12,03,04,8.60
2017,03,12,03,05,8.60
2017,03,12,03,06,8.70
2017,03,12,03,07,8.70
2017,03,12,03,08,8.80
2017,03,12,03,09,8.80
2017,03,12,03,10,8.80
2017,03,12,03,11,8.80
2017,03,12,03,12,8.80
2017,03,12,03,13,8.80
2017,03,12,03,14,8.80
2017,03,12,03,15,8.80
2017,03,12,03,16,8.80
2017,03,12,03,17,8.80
2017,03,12,03,18,8.80
2017,03,12,03,19,8.80
2017,03,12,03,20,8.80
2017,03,12,03,21,8.80
2017,03,12,03,22,8.80
2017,03,12,03,23,8.80
2017,03,12,03,24,8.80
2017,03,12,03,25,8.80
2017,03,12,03,26,8.80
2017,03,12,03,27,8.80
2017,03,12,03,28,8.80
2017,03,12,03,29,8.80
2017,03,12,03,30,8.80
2017,03,12,03,31,8.70
2017,03,12,03,32,8.70
2017,03,12,03,33,8.70
2017,03,12,03,34,8.70
2017,03,12,03,35,8.70
2017,03,12,03,36,8.70
2017,03,12,03,37,8.70
2017,03,12,03,38,8.70
2017,03,12,03,39,8.70
2017,03,12,03,40,8.70
2017,03,12,03,41,8.70
2017,03,12,03,42,8.70
2017,03,12,03,43,8.70
2017,03,12,03,44,8.60
2017,03,12,03,45,8.60
2017,03,12,03,46,8.60
2017,03,12,03,47,8.50
2017,03,12,03,48,8.50
2017,03,12,03,49,8.40
2017,03,12,03,50,8.40
2017,03,12,03,51,8.40
2017,03,12,03,52,8.40
2017,03,12,03,53,8.40
2017,03,12,03,54,8.30
2017,03,12,03,55,8.30
2017,03,12,03,56,8.30
2017,03,12,03,57,8.30
2017,03,12,03,58,8.20
2017,03,12,03,59,8.20
2017,03,12,04,00,8.20
2017,03,12,04,01,8.10
2017,03,12,04,02,8.10
2017,03,12,04,03,8.10
2017,03,12,04,04,8.10
2017,03,12,04,05,8.10
2017,03,12,04,06,8.20
2017,03,12,04,07,8.20
2017,03,12,04,08,8.20
2017,03,12,04,09,8.20
2017,03,12,04,10,8.20
2017,03,12,04,11,8.10
2017,03,12,04,12,8.10
2017,03,12,04,13,8.10
2017,03,12,04,14,8.10
2017,03,12,04,15,8.10
2017,03,12,04,16,8.10
2017,03,12,04,17,8.10
2017,03,12,04,18,8.10
2017,03,12,04,19,8.10
2017,03,12,04,20,8.10
2017,03,12,08,34,8.10
2017,03,12,08,35,8.10
2017,03,12,08,36,8.00
2017,03,12,08,37,8.00
2017,03,12,08,38,8.00
2017,03,12,08,39,8.00
2017,03,12,08,40,8.00
2017,03,12,08,41,7.90
2017,03,12,08,42,8.00
2017,03,12,08,43,7.90
2017,03,12,08,44,7.90
2017,03,12,08,45,7.90
2017,03,12,08,46,7.90
2017,03,12,08,47,7.90
2017,03,12,08,48,7.90
2017,03,12,08,49,7.90
2017,03,12,08,50,7.90
2017,03,12,08,51,7.90
2017,03,12,08,52,7.90
2017,03,12,08,53,7.90
2017,03,12,08,54,7.90
2017,03,12,08,55,7.90
2017,03,12,08,56,7.90
2017,03,12,08,57,7.90
2017,03,12,08,58,7.90
2017,03,12,08,59,7.90
2017,03,12,09,00,7.90
2017,03,12,09,01,7.90
2017,03,12,09,02,8.00
2017,03,12,09,03,7.90
2017,03,12,09,04,8.00
2017,03,12,09,05,8.00
2017,03,12,09,06,8.00
2017,03,12,09,07,8.00
2017,03,12,09,08,8.00
2017,03,12,09,09,8.00
2017,03,12,09,10,8.00
2017,03,12,09,11,8.00
2017,03,12,09,12,8.00
2017,03,12,09,13,8.00
2017,03,12,09,14,8.10
2017,03,12,09,15,8.10
2017,03,12,09,16,8.10
2017,03,12,09,17,8.10
2017,03,12,09,18,8.10
2017,03,12,09,19,8.10
2017,03,12,09,20,8.10
2017,03,12,09,21,8.10
2017,03,12,09,22,8.10
2017,03,12,09,23,8.10
2017,03,12,09,24,8.10
2017,03,12,09,25,8.10
2017,03,12,09,26,8.10
2017,03,12,09,27,8.10
2017,03,12,09,28,8.20
2017,03,12,09,29,8.20
2017,03,12,09,30,8.20
2017,03,12,09,31,8.10
2017,03,12,09,32,8.10
2017,03,12,09,33,8.10
2017,03,12,09,34,8.10
2017,03,12,09,35,8.10
2017,03,12,09,36,8.10
2017,03,12,09,37,8.20
2017,03,12,09,38,8.20
2017,03,12,09,39,8.20
2017,03,12,09,40,8.20
2017,03,12,09,41,8.20
2017,03,12,09,42,8.20
2017,03,12,09,43,8.20
2017,03,12,09,44,8.20
2017,03,12,09,45,8.30
2017,03,12,09,46,8.20
2017,03,12,09,47,8.30
2017,03,12,09,48,8.30
2017,03,12,09,49,8.30
2017,03,12,09,50,8.30
2017,03,12,09,51,8.30
2017,03,12,09,52,8.40
2017,03,12,09,53,8.40
2017,03,12,09,54,8.40
2017,03,12,09,55,8.40
2017,03,12,09,56,8.40
2017,03,12,09,57,8.40
2017,03,12,09,58,8.40
2017,03,12,09,59,8.50
2017,03,12,10,00,8.50
2017,03,12,10,01,8.50
2017,03,12,10,02,8.60
2017,03,12,10,03,8.60
2017,03,12,10,04,8.60
2017,03,12,10,05,8.60
2017,03,12,10,06,8.50
2017,03,12,10,07,8.50
2017,03,12,10,08,8.50
2017,03,12,10,09,8.50
2017,03,12,10,10,8.50
2017,03,12,10,11,8.50
2017,03,12,10,12,8.60
2017,03,12,10,13,8.60
2017,03,12,10,14,8.60
2017,03,12,10,15,8.60
2017,03,12,10,16,8.60
2017,03,12,10,17,8.60
2017,03,12,10,18,8.60
2017,03,12,10,19,8.60
2017,03,12,10,20,8.70
2017,03,12,10,21,8.70
2017,03,12,10,22,8.80
2017,03,12,10,23,8.80
2017,03,12,10,24,8.80
2017,03,12,10,25,8.90
2017,03,12,10,26,8.90
2017,03,12,10,27,8.90
2017,03,12,10,28,8.90
2017,03,12,10,29,9.00
2017,03,12,10,30,9.00
2017,03,12,10,31,9.00
2017,03,12,10,32,9.10
2017,03,12,10,33,9.10
2017,03,12,10,34,9.10
2017,03,12,10,35,9.10
2017,03,12,10,36,9.20
2017,03,12,10,37,9.20
2017,03,12,10,38,9.20
2017,03,12,10,39,9.20
2017,03,12,10,40,9.20
2017,03,12,10,41,9.20
2017,03,12,10,42,9.20
2017,03,12,10,43,9.20
2017,03,12,10,44,9.20
2017,03,12,10,45,9.20
2017,03,12,10,46,9.20
2017,03,12,10,47,9.20
2017,03,12,10,48,9.20
2017,03,12,10,49,9.20
2017,03,12,10,50,9.20
2017,03,12,10,51,9.20
2017,03,12,10,52,9.20
2017,03,12,10,53,9.20
2017,03,12,10,54,9.20
2017,03,12,10,55,9.20
2017,03,12,10,56,9.20
2017,03,12,10,57,9.20
2017,03,12,10,58,9.20
2017,03,12,10,59,9.20
2017,03,12,11,00,9.20
2017,03,12,11,01,9.10
2017,03,12,11,02,9.10
2017,03,12,11,03,9.10
2017,03,12,11,04,9.10
2017,03,12,11,05,9.10
2017,03,12,11,06,9.10
2017,03,12,11,07,9.10
2017,03,12,11,08,9.10
2017,03,12,11,09,9.10
2017,03,12,11,10,9.10
2017,03,12,11,11,9.10
2017,03,12,11,12,9.10
2017,03,12,11,13,9.10
2017,03,12,11,14,9.00
2017,03,12,11,15,9.00
2017,03,12,11,16,9.00
2017,03,12,11,17,9.00
2017,03,12,11,18,9.00
2017,03,12,11,19,9.00
2017,03,12,11,20,9.00
2017,03,12,11,21,9.00
2017,03,12,11,22,9.00
2017,03,12,11,23,9.10
2017,03,12,11,24,9.10
2017,03,12,11,25,9.10
2017,03,12,11,26,9.10
2017,03,12,11,27,9.10
2017,03,12,11,28,9.10
2017,03,12,11,29,9.10
2017,03,12,11,30,9.10
2017,03,12,11,31,9.20
2017,03,12,11,32,9.20
2017,03,12,11,33,9.20
2017,03,12,11,34,9.20
2017,03,12,11,35,9.20
2017,03,12,11,36,9.20
2017,03,12,11,37,9.30
2017,03,12,11,38,9.30
2017,03,12,11,39,9.30
2017,03,12,11,40,9.30
2017,03,12,11,41,9.30
2017,03,12,11,42,9.30
2017,03,12,11,43,9.30
2017,03,12,11,44,9.40
2017,03,12,11,45,9.40
2017,03,12,11,46,9.40
2017,03,12,11,47,9.40
2017,03,12,11,48,9.40
2017,03,12,11,49,9.40
2017,03,12,11,50,9.40
2017,03,12,11,51,9.40
2017,03,12,11,52,9.40
2017,03,12,11,53,9.40
2017,03,12,11,54,9.40
2017,03,12,11,55,9.40
2017,03,12,11,56,9.50
2017,03,12,11,57,9.50
2017,03,12,11,58,9.50
2017,03,12,11,59,9.50
2017,03,12,12,00,9.50
2017,03,12,12,01,9.50
2017,03,12,12,02,9.60
2017,03,12,12,03,9.60
2017,03,12,12,04,9.60
2017,03,12,12,05,9.60
2017,03,12,12,06,9.60
2017,03,12,12,07,9.60
2017,03,12,12,08,9.60
2017,03,12,12,09,9.60
2017,03,12,12,10,9.60
2017,03,12,12,11,9.60
2017,03,12,12,12,9.60
2017,03,12,12,13,9.60
2017,03,12,12,14,9.60
2017,03,12,12,15,9.60
2017,03,12,12,16,9.60
2017,03,12,12,17,9.60
2017,03,12,12,18,9.60
2017,03,12,12,19,9.60
2017,03,12,12,20,9.60
2017,03,12,12,21,9.60
2017,03,12,12,22,9.60
2017,03,12,12,23,9.60
2017,03,12,12,24,9.60
2017,03,12,12,25,9.60
2017,03,12,12,26,9.60
2017,03,12,12,27,9.60
2017,03,12,12,28,9.60
2017,03,12,12,29,9.60
2017,03,12,12,30,9.60
2017,03,12,12,31,9.60
2017,03,12,12,32,9.60
2017,03,12,12,33,9.60
2017,03,12,12,34,9.60
2017,03,12,12,35,9.60
2017,03,12,12,36,9.60
2017,03,12,12,37,9.60
2017,03,12,12,38,9.60
2017,03,12,12,39,9.60
2017,03,12,12,40,9.60
2017,03,12,12,41,9.60
2017,03,12,12,42,9.60
2017,03,12,12,43,9.60
2017,03,12,12,44,9.60
2017,03,12,12,45,9.60
2017,03,12,12,46,9.60
2017,03,12,12,47,9.60
2017,03,12,12,48,9.60
2017,03,12,12,49,9.60
2017,03,12,12,50,9.70
2017,03,12,12,51,9.70
2017,03,12,12,52,9.70
2017,03,12,12,53,9.70
2017,03,12,12,54,9.70
2017,03,12,12,55,9.70
2017,03,12,12,56,9.70
2017,03,12,12,57,9.70
2017,03,12,12,58,9.70
2017,03,12,12,59,9.70
2017,03,12,13,00,9.80
2017,03,12,13,01,9.80
2017,03,12,13,02,9.80
2017,03,12,13,03,9.80
2017,03,12,13,04,9.80
2017,03,12,13,05,9.80
2017,03,12,13,06,9.80
2017,03,12,13,07,9.80
2017,03,12,13,08,9.80
2017,03,12,13,09,9.80
2017,03,12,13,10,9.80
2017,03,12,13,11,9.70
2017,03,12,13,12,9.70
2017,03,12,13,13,9.70
2017,03,12,13,14,9.70
2017,03,12,13,15,9.70
2017,03,12,13,16,9.70
2017,03,12,13,17,9.70
2017,03,12,13,18,9.70
2017,03,12,13,19,9.70
2017,03,12,13,20,9.80
2017,03,12,13,21,9.80
2017,03,12,13,22,9.80
2017,03,12,13,23,9.80
2017,03,12,13,24,9.80
2017,03,12,13,25,9.80
2017,03,12,13,26,9.80
2017,03,12,13,27,9.80
2017,03,12,13,28,9.80
2017,03,12,13,29,9.80
2017,03,12,13,30,9.80
2017,03,12,13,31,9.90
2017,03,12,13,32,9.90
2017,03,12,13,33,9.90
2017,03,12,13,34,9.90
2017,03,12,13,35,9.90
2017,03,12,13,36,9.90
2017,03,12,13,37,10.00
2017,03,12,13,38,10.00
2017,03,12,13,39,10.00
2017,03,12,13,40,10.00
2017,03,12,13,41,10.00
2017,03,12,13,42,10.00
2017,03,12,13,43,10.00
2017,03,12,13,44,10.00
2017,03,12,13,45,10.00
2017,03,12,13,46,10.00
2017,03,12,13,47,10.00
2017,03,12,13,48,10.00
2017,03,12,13,49,10.00
2017,03,12,13,50,10.00
2017,03,12,13,51,10.00
2017,03,12,13,52,10.00
2017,03,12,13,53,10.00
2017,03,12,13,54,10.00
2017,03,12,13,55,10.10
2017,03,12,13,56,10.10
2017,03,12,13,57,10.10
2017,03,12,13,58,10.10
2017,03,12,13,59,10.10
2017,03,12,14,00,10.10
2017,03,12,14,01,10.10
2017,03,12,14,02,10.10
2017,03,12,14,03,10.10
2017,03,12,14,04,10.10
2017,03,12,14,05,10.10
2017,03,12,14,06,10.10
2017,03,12,14,07,10.10
2017,03,12,14,08,10.10
2017,03,12,14,09,10.10
2017,03,12,14,10,10.10
2017,03,12,14,11,10.10
2017,03,12,14,12,10.10
2017,03,12,14,13,10.10
2017,03,12,14,14,10.20
2017,03,12,14,15,10.20
2017,03,12,14,16,10.20
2017,03,12,14,17,10.20
2017,03,12,14,18,10.20
2017,03,12,14,19,10.20
2017,03,12,14,20,10.20
2017,03,12,14,21,10.20
2017,03,12,14,22,10.20
2017,03,12,14,23,10.20
2017,03,12,14,24,10.20
2017,03,12,14,25,10.20
2017,03,12,14,26,10.30
2017,03,12,14,27,10.30
2017,03,12,14,28,10.30
2017,03,12,14,29,10.30
2017,03,12,14,30,10.30
2017,03,12,14,31,10.30
2017,03,12,14,32,10.30
2017,03,12,14,33,10.30
2017,03,12,14,34,10.30
2017,03,12,14,35,10.30
2017,03,12,14,36,10.30
2017,03,12,14,37,10.30
2017,03,12,14,38,10.30
2017,03,12,14,39,10.30
2017,03,12,14,40,10.30
2017,03,12,14,41,10.30
2017,03,12,14,42,10.30
2017,03,12,14,43,10.30
2017,03,12,14,44,10.30
2017,03,12,14,45,10.30
2017,03,12,14,46,10.30
2017,03,12,14,47,10.30
2017,03,12,14,48,10.30
2017,03,12,14,49,10.30
2017,03,12,14,50,10.30
2017,03,12,14,51,10.30
2017,03,12,14,52,10.30
2017,03,12,14,53,10.30
2017,03,12,14,54,10.30
2017,03,12,14,55,10.30
2017,03,12,14,56,10.30
2017,03,12,14,57,10.30
2017,03,12,14,58,10.30
2017,03,12,14,59,10.30
2017,03,12,15,00,10.20
2017,03,12,15,01,10.20
2017,03,12,15,02,10.20
2017,03,12,15,03,10.30
2017,03,12,15,04,10.20
2017,03,12,15,05,10.30
2017,03,12,15,06,10.20
2017,03,12,15,07,10.30
2017,03,12,15,08,10.30
2017,03,12,15,09,10.20
2017,03,12,15,10,10.20
2017,03,12,15,11,10.20
2017,03,12,15,12,10.30
2017,03,12,15,13,10.30
2017,03,12,15,14,10.30
2017,03,12,15,15,10.30
2017,03,12,15,16,10.30
2017,03,12,15,17,10.30
2017,03,12,15,18,10.30
2017,03,12,15,19,10.30
2017,03,12,15,20,10.30
2017,03,12,15,21,10.40
2017,03,12,15,22,10.40
2017,03,12,15,23,10.40
2017,03,12,15,24,10.40
2017,03,12,15,25,10.40
2017,03,12,15,26,10.50
2017,03,12,15,27,10.50
2017,03,12,15,28,10.50
2017,03,12,15,29,10.60
2017,03,12,15,30,10.60
2017,03,12,15,31,10.60
2017,03,12,15,32,10.60
2017,03,12,15,33,10.60
2017,03,12,15,34,10.60
2017,03,12,15,35,10.60
2017,03,12,15,36,10.60
2017,03,12,15,37,10.60
2017,03,12,15,38,10.60
2017,03,12,15,39,10.60
2017,03,12,15,40,10.60
2017,03,12,15,41,10.50
2017,03,12,15,42,10.50
2017,03,12,15,43,10.50
2017,03,12,15,44,10.50
2017,03,12,15,45,10.50
2017,03,12,15,46,10.50
2017,03,12,15,47,10.40
2017,03,12,15,48,10.50
2017,03,12,15,49,10.50
2017,03,12,15,50,10.50
2017,03,12,15,51,10.50
2017,03,12,15,52,10.40
2017,03,12,15,53,10.40
2017,03,12,15,54,10.40
2017,03,12,15,55,10.40
2017,03,12,15,56,10.30
2017,03,12,15,57,10.40
2017,03,12,15,58,10.40
2017,03,12,15,59,10.40
2017,03,12,16,00,10.40
2017,03,12,16,01,10.40
2017,03,12,16,02,10.40
2017,03,12,16,03,10.40
2017,03,12,16,04,10.40
2017,03,12,16,05,10.40
2017,03,12,16,06,10.40
2017,03,12,16,07,10.40
2017,03,12,16,08,10.40
2017,03,12,16,09,10.40
2017,03,12,16,10,10.30
2017,03,12,16,11,10.30
2017,03,12,16,12,10.30
2017,03,12,16,13,10.30
2017,03,12,16,14,10.30
2017,03,12,16,15,10.30
2017,03,12,16,16,10.30
2017,03,12,16,17,10.30
2017,03,12,16,18,10.30
2017,03,12,16,19,10.30
2017,03,12,16,20,10.30
2017,03,12,16,21,10.30
2017,03,12,16,22,10.30
2017,03,12,16,23,10.30
2017,03,12,16,24,10.20
2017,03,12,16,25,10.30
2017,03,12,16,26,10.30
2017,03,12,16,27,10.30
2017,03,12,16,28,10.30
2017,03,12,16,29,10.30
2017,03,12,16,30,10.30
2017,03,12,16,31,10.30
2017,03,12,16,32,10.30
2017,03,12,16,33,10.30
2017,03,12,16,34,10.20
2017,03,12,16,35,10.20
2017,03,12,16,36,10.20
2017,03,12,16,37,10.20
2017,03,12,16,38,10.10
2017,03,12,16,39,10.10
2017,03,12,16,40,10.10
2017,03,12,16,41,10.10
2017,03,12,16,42,10.10
2017,03,12,16,43,10.10
2017,03,12,16,44,10.10
2017,03,12,16,45,10.00
2017,03,12,16,46,10.00
2017,03,12,16,47,10.00
2017,03,12,16,48,10.00
2017,03,12,16,49,10.00
2017,03,12,16,50,10.00
2017,03,12,16,51,10.00
2017,03,12,16,52,10.00
2017,03,12,16,53,10.00
2017,03,12,16,54,10.00
2017,03,12,16,55,10.00
2017,03,12,16,56,10.00
2017,03,12,16,57,10.00
2017,03,12,16,58,10.00
2017,03,12,16,59,10.00
2017,03,12,17,00,10.00
2017,03,12,17,01,10.00
2017,03,12,17,02,10.00
2017,03,12,17,03,10.10
2017,03,12,17,04,10.10
2017,03,12,17,05,10.10
2017,03,12,17,06,10.10
2017,03,12,17,07,10.10
2017,03,12,17,08,10.10
2017,03,12,17,09,10.10
2017,03,12,17,10,10.10
2017,03,12,17,11,10.10
2017,03,12,17,12,10.10
2017,03,12,17,13,10.10
2017,03,12,17,14,10.10
2017,03,12,17,15,10.10
2017,03,12,17,16,10.10
2017,03,12,17,17,10.00
2017,03,12,17,18,10.00
2017,03,12,17,19,10.00
2017,03,12,17,20,10.00
2017,03,12,17,21,10.00
2017,03,12,17,22,10.00
2017,03,12,17,23,10.00
2017,03,12,17,24,10.00
2017,03,12,17,25,10.00
2017,03,12,17,26,10.00
2017,03,12,17,27,10.00
2017,03,12,17,28,10.00
2017,03,12,17,29,10.00
2017,03,12,17,30,9.90
2017,03,12,17,31,9.90
2017,03,12,17,32,9.90
2017,03,12,17,33,9.90
2017,03,12,17,34,9.90
2017,03,12,17,35,9.90
2017,03,12,17,36,9.90
2017,03,12,17,37,9.90
2017,03,12,17,38,9.90
2017,03,12,17,39,9.90
2017,03,12,17,40,9.90
2017,03,12,17,41,9.90
2017,03,12,17,42,9.90
2017,03,12,17,43,9.90
2017,03,12,17,44,9.90
2017,03,12,17,45,9.90
2017,03,12,17,46,9.90
2017,03,12,17,47,9.90
2017,03,12,17,48,9.90
2017,03,12,17,49,9.90
2017,03,12,17,50,9.90
2017,03,12,17,51,9.90
2017,03,12,17,52,9.90
2017,03,12,17,53,9.90
2017,03,12,17,54,9.90
2017,03,12,17,55,9.90
2017,03,12,17,56,9.90
2017,03,12,17,57,9.90
2017,03,12,17,58,9.90
2017,03,12,17,59,9.90
2017,03,12,18,00,9.90
2017,03,12,18,01,9.90
2017,03,12,18,02,9.90
2017,03,12,18,03,9.90
2017,03,12,18,04,9.90
2017,03,12,18,05,9.90
2017,03,12,18,06,9.90
2017,03,12,18,07,9.90
2017,03,12,18,08,9.90
2017,03,12,18,09,9.90
2017,03,12,18,10,9.90
2017,03,12,18,11,9.90
2017,03,12,18,12,9.90
2017,03,12,18,13,9.90
2017,03,12,18,14,9.90
2017,03,12,18,15,9.90
2017,03,12,18,16,9.90
2017,03,12,18,17,9.80
2017,03,12,18,18,9.80
2017,03,12,18,19,9.80
2017,03,12,18,20,9.80
2017,03,12,18,21,9.80
2017,03,12,18,22,9.80
2017,03,12,18,23,9.70
2017,03,12,18,24,9.70
2017,03,12,18,25,9.70
2017,03,12,18,26,9.60
2017,03,12,18,27,9.60
2017,03,12,18,28,9.60
2017,03,12,18,29,9.50
2017,03,12,18,30,9.50
2017,03,12,18,31,9.40
2017,03,12,18,32,9.40
2017,03,12,18,33,9.40
2017,03,12,18,34,9.40
2017,03,12,18,35,9.30
2017,03,12,18,36,9.30
2017,03,12,18,37,9.30
2017,03,12,18,38,9.30
2017,03,12,18,39,9.30
2017,03,12,18,40,9.30
2017,03,12,18,41,9.30
2017,03,12,18,42,9.30
2017,03,12,18,43,9.30
2017,03,12,18,44,9.30
2017,03,12,18,45,9.30
2017,03,12,18,46,9.30
2017,03,12,18,47,9.30
2017,03,12,18,48,9.30
2017,03,12,18,49,9.30
2017,03,12,18,50,9.30
2017,03,12,18,51,9.30
2017,03,12,18,52,9.30
2017,03,12,18,53,9.30
2017,03,12,18,54,9.30
2017,03,12,18,55,9.30
2017,03,12,18,56,9.30
2017,03,12,18,57,9.30
2017,03,12,18,58,9.30
2017,03,12,18,59,9.20
2017,03,12,19,00,9.20
2017,03,12,19,01,9.20
2017,03,12,19,02,9.20
2017,03,12,19,03,9.20
2017,03,12,19,04,9.20
2017,03,12,19,05,9.20
2017,03,12,19,06,9.20
2017,03,12,19,07,9.20
2017,03,12,19,08,9.20
2017,03,12,19,09,9.20
2017,03,12,19,10,9.20
2017,03,12,19,11,9.20
2017,03,12,19,12,9.20
2017,03,12,19,13,9.20
2017,03,12,19,14,9.10
2017,03,12,19,15,9.10
2017,03,12,19,16,9.10
2017,03,12,19,17,9.10
2017,03,12,19,18,9.10
2017,03,12,19,19,9.10
2017,03,12,19,20,9.10
2017,03,12,19,21,9.10
2017,03,12,19,22,9.10
2017,03,12,19,23,9.10
2017,03,12,19,24,9.10
2017,03,12,19,25,9.10
2017,03,12,19,26,9.10
2017,03,12,19,27,9.10
2017,03,12,19,28,9.10
2017,03,12,19,29,9.10
2017,03,12,19,30,9.10
2017,03,12,19,31,9.10
2017,03,12,19,32,9.10
2017,03,12,19,33,9.10
2017,03,12,19,34,9.10
2017,03,12,19,35,9.10
2017,03,12,19,36,9.10
2017,03,12,19,37,9.10
2017,03,12,19,38,9.10
2017,03,12,19,39,9.10
2017,03,12,19,40,9.10
2017,03,12,19,41,9.10
2017,03,12,19,42,9.10
2017,03,12,19,43,9.10
2017,03,12,19,44,9.10
2017,03,12,19,45,9.10
2017,03,12,19,46,9.10
2017,03,12,19,47,9.10
2017,03,12,19,48,9.10
2017,03,12,19,49,9.10
2017,03,12,19,50,9.10
2017,03,12,19,51,9.10
2017,03,12,19,52,9.10
2017,03,12,19,53,9.10
2017,03,12,19,54,9.10
2017,03,12,19,55,9.10
2017,03,12,19,56,9.10
2017,03,12,19,57,9.10
2017,03,12,19,58,9.00
2017,03,12,19,59,9.00
2017,03,12,20,00,9.00
2017,03,12,20,01,9.00
2017,03,12,20,02,9.00
2017,03,12,20,03,9.00
2017,03,12,20,04,9.00
2017,03,12,20,05,9.00
2017,03,12,20,06,9.00
2017,03,12,20,07,9.00
2017,03,12,20,08,8.90
2017,03,12,20,09,8.90
2017,03,12,20,10,8.90
2017,03,12,20,11,8.90
2017,03,12,20,12,8.90
2017,03,12,20,13,8.90
2017,03,12,20,14,8.90
2017,03,12,20,15,8.90
2017,03,12,20,16,8.90
2017,03,12,20,17,8.90
2017,03,12,20,18,8.90
2017,03,12,20,19,8.90
2017,03,12,20,20,8.90
2017,03,12,20,21,8.90
2017,03,12,20,22,8.90
2017,03,12,20,23,8.90
2017,03,12,20,24,8.90
2017,03,12,20,25,8.90
2017,03,12,20,26,8.90
2017,03,12,20,27,8.90
2017,03,12,20,28,8.90
2017,03,12,20,29,8.90
2017,03,12,20,30,8.90
2017,03,12,20,31,8.90
2017,03,12,20,32,8.90
2017,03,12,20,33,8.90
2017,03,12,20,34,8.90
2017,03,12,20,35,8.90
2017,03,12,20,36,8.90
2017,03,12,20,37,8.90
2017,03,12,20,38,8.90
2017,03,12,20,39,8.90
2017,03,12,20,40,8.90
2017,03,12,20,41,8.90
2017,03,12,20,42,8.90
2017,03,12,20,43,8.90
2017,03,12,20,44,8.80
2017,03,12,20,45,8.80
2017,03,12,20,46,8.80
2017,03,12,20,47,8.80
2017,03,12,20,48,8.80
2017,03,12,20,49,8.80
2017,03,12,20,50,8.80
2017,03,12,20,51,8.80
2017,03,12,20,52,8.80
2017,03,12,20,53,8.80
2017,03,12,20,54,8.80
2017,03,12,20,55,8.80
2017,03,12,20,56,8.80
2017,03,12,20,57,8.80
2017,03,12,20,58,8.80
2017,03,12,20,59,8.80
2017,03,12,21,00,8.80
2017,03,12,21,01,8.80
2017,03,12,21,02,8.80
2017,03,12,21,03,8.80
2017,03,12,21,04,8.80
2017,03,12,21,05,8.80
2017,03,12,21,06,8.80
2017,03,12,21,07,8.80
2017,03,12,21,08,8.80
2017,03,12,21,09,8.80
2017,03,12,21,10,8.80
2017,03,12,21,11,8.80
2017,03,12,21,12,8.80
2017,03,12,21,13,8.80
2017,03,12,21,14,8.80
2017,03,12,21,15,8.80
2017,03,12,21,16,8.80
2017,03,12,21,17,8.80
2017,03,12,21,18,8.80
2017,03,12,21,19,8.80
2017,03,12,21,20,8.80
2017,03,12,21,21,8.80
2017,03,12,21,22,8.80
2017,03,12,21,23,8.80
2017,03,12,21,24,8.80
2017,03,12,21,25,8.80
2017,03,12,21,26,8.80
2017,03,12,21,27,8.80
2017,03,12,21,28,8.80
2017,03,12,21,29,8.80
2017,03,12,21,30,8.80
2017,03,12,21,31,8.80
2017,03,12,21,32,8.80
2017,03,12,21,33,8.80
2017,03,12,21,34,8.80
2017,03,12,21,35,8.80
2017,03,12,21,36,8.80
2017,03,12,21,37,8.80
2017,03,12,21,38,8.80
2017,03,12,21,39,8.70
2017,03,12,21,40,8.70
2017,03,12,21,41,8.70
2017,03,12,21,42,8.70
2017,03,12,21,43,8.70
2017,03,12,21,44,8.70
2017,03,12,21,45,8.70
2017,03,12,21,46,8.70
2017,03,12,21,47,8.70
2017,03,12,21,48,8.70
2017,03,12,21,49,8.70
2017,03,12,21,50,8.70
2017,03,12,21,51,8.70
2017,03,12,21,52,8.70
2017,03,12,21,53,8.70
2017,03,12,21,54,8.70
2017,03,12,21,55,8.70
2017,03,12,21,56,8.70
2017,03,12,21,57,8.70
2017,03,12,21,58,8.70
2017,03,12,21,59,8.70
2017,03,12,22,00,8.70
2017,03,12,22,01,8.70
2017,03,12,22,02,8.70
2017,03,12,22,03,8.70
2017,03,12,22,04,8.70
2017,03,12,22,05,8.70
2017,03,12,22,06,8.70
2017,03,12,22,07,8.70
2017,03,12,22,08,8.70
2017,03,12,22,09,8.70
2017,03,12,22,10,8.70
2017,03,12,22,11,8.70
2017,03,12,22,12,8.60
2017,03,12,22,13,8.60
2017,03,12,22,14,8.60
2017,03,12,22,15,8.60
2017,03,12,22,16,8.70
2017,03,12,22,17,8.70
2017,03,12,22,18,8.60
2017,03,12,22,19,8.60
2017,03,12,22,20,8.70
2017,03,12,22,21,8.60
2017,03,12,22,22,8.60
2017,03,12,22,23,8.60
2017,03,12,22,24,8.60
2017,03,12,22,25,8.60
2017,03,12,22,26,8.70
2017,03,12,22,27,8.70
2017,03,12,22,28,8.60
2017,03,12,22,29,8.70
2017,03,12,22,30,8.60
2017,03,12,22,31,8.70
2017,03,12,22,32,8.70
2017,03,12,22,33,8.70
2017,03,12,22,34,8.70
2017,03,12,22,35,8.70
2017,03,12,22,36,8.70
2017,03,12,22,37,8.70
2017,03,12,22,38,8.70
2017,03,12,22,39,8.70
2017,03,12,22,40,8.60
2017,03,12,22,41,8.60
2017,03,12,22,42,8.60
2017,03,12,22,43,8.60
2017,03,12,22,44,8.60
2017,03,12,22,45,8.60
2017,03,12,22,46,8.60
2017,03,12,22,47,8.60
2017,03,12,22,48,8.60
2017,03,12,22,49,8.60
2017,03,12,22,50,8.60
2017,03,12,22,51,8.60
2017,03,12,22,52,8.60
2017,03,12,22,53,8.60
2017,03,12,22,54,8.60
2017,03,12,22,55,8.60
2017,03,12,22,56,8.60
2017,03,12,22,57,8.60
2017,03,12,22,58,8.60
2017,03,12,22,59,8.60
2017,03,12,23,00,8.60
2017,03,12,23,01,8.60
2017,03,12,23,02,8.60
2017,03,12,23,03,8.60
2017,03,12,23,04,8.60
2017,03,12,23,05,8.60
2017,03,12,23,06,8.60
2017,03,12,23,07,8.60
2017,03,12,23,08,8.60
2017,03,12,23,09,8.60